Hourly Data Report for July 07, 2021

BONAVISTA
NEWFOUNDLAND
Current Station Operator: ECCC - MSC

48°40'02.000" N
53°06'51.000" W
25.60 m
8400601
71178
AVA

Download Data

Hourly Data (July 2021)
Hourly Data Report for July 7, 2021
TIME
LST
Temp Definition
°C
Dew Point Definition
°C
Rel Hum Definition
%
Precip. Amount Definition
mm

Wind Dir Definition
10's deg

Wind Spd Definition
km/h
Visibility Definition
km
Stn Press Definition
kPa
Hmdx Definition


Wind Chill Definition


Weather Definition


00:30 15.4 10.6 73 0.0 23 38   100.27     LegendNANA
01:30 14.2 11.0 81 0.0 23 50   100.27     LegendNANA
02:30 13.6 11.5 87 0.0 23 46   100.26     LegendNANA
03:30 13.8 12.6 92 0.0 23 43   100.25     LegendNANA
04:30 14.3 12.8 91 0.0 23 40   100.26     LegendNANA
05:30 14.8 13.2 90 0.0 23 35   100.27     LegendNANA
06:30 15.0 12.8 87 0.0 23 34   100.26     LegendNANA
07:30 16.0 13.1 83 0.0 22 27   100.21     LegendNANA
08:30 16.8 13.2 79 0.0 22 28   100.18     LegendNANA
09:30 17.8 14.0 79 0.0 22 32   100.12     LegendNANA
10:30 19.2 14.7 76 0.0 23 33   100.04     LegendNANA
11:30 21.3 15.1 68 0.0 21 35   99.97 25   LegendNANA
12:30 21.6 15.9 70 0.0 22 40   99.95 26   LegendNANA
13:30 19.3 15.0 76 0.0 23 43   99.93     LegendNANA
14:30 20.1 15.2 73 0.0 22 34   99.89     LegendNANA
15:30 19.2 14.7 75 0.0 22 42   99.88     LegendNANA
16:30 18.2 14.4 78 0.0 23 45   99.87     LegendNANA
17:30 18.8 15.1 79 0.0 23 39   99.93     LegendNANA
18:30 18.4 15.1 81 0.0 23 39   99.95     LegendNANA
19:30 18.1 15.4 84 0.0 22 31   99.98     LegendNANA
20:30 16.5 14.7 89 0.0 23 39   100.05     LegendNANA
21:30 15.9 14.3 90 0.0 22 30   100.07     LegendNANA
22:30 15.0 13.6 91 0.0 22 35   100.10     LegendNANA
23:30 14.7 13.4 92 0.0 22 36   100.11     LegendNANA

Notes on Data Quality.

Legend

  • E = Estimated
  • M = Missing
  • NA = Not Available*
  • [empty] = Indicates an unobserved value
Date modified: